Voltar ao catálogo

CZ-2D R/B

AtivoPO
NORAD 39154·ROCKET BODY·🇨🇳 China

Lançado Apr 26, 2013 de Jiuquan Satellite Launch Center

Loading…

Próximas Passagens (próximas 24 horas)

TLE

AtualizadoSource: Space-Track

Época: Sep 14, 2026, 10:00 UTC

1 39154U 13018E   26257.41679110  .00000597  00000-0  83058-4 0  9995
2 39154  98.4439 235.0154 0018072 122.7982 237.4973 14.81710766721321

Acompanhe CZ-2D R/B em tempo real com AllMySat

Download on the App Store